Regional Weather Roundup
Issued by NWS Wakefield, VA

Home | Current Version | Previous Version | Text Only | Print | Product List | Glossary On
Versions: 1 2 3 4 5 6 7 8 9 10 11 12 13 14 15 16 17 18 19 20 21 22 23 24 25 26 27
000
ASUS41 KAKQ 251815
RWRAKQ

REGIONAL WEATHER ROUNDUP
NATIONAL WEATHER SERVICE WAKEFIELD VA
200 PM EDT SUN JUN 25 2017

Note: "fair" indicates few or no clouds below 12,000 feet with no
significant weather and/or obstructions to visibility. * = Denotes
station may not report precipitation (e.g., rain,snow,etc.),
thunder or fog.

VAZ042-051-052>054-056-251900-
NORTHERN VIRGINIA

CITY           SKY/WX    TMP DP  RH WIND       PRES   REMARKS
WASH NATIONAL  PTSUNNY   84  58  40 NW12      30.01F
DULLES         PTSUNNY   83  53  35 W10       30.02F
FORT BELVOIR   MOSUNNY   85  57  38 SW7       30.01F
QUANTICO       MOSUNNY   86  57  37 VRB6      30.02F
FREDERICKSBRG* MOSUNNY   83  59  44 W5        30.01F
STAFFORD*      MOSUNNY   82  55  39 CALM      30.06F
WARRENTON      MOSUNNY   85  50  30 W3        30.03F
CULPEPER*      MOSUNNY   84  55  36 NW9       30.04S
MANASSAS*      PTSUNNY   82  57  42 W12       30.02F
LEESBURG*      SUNNY    N/A N/A N/A NW8G21    30.03F
WINCHESTER     MOSUNNY   79  50  36 W13G18    30.04F
FRONT ROYAL*   PTCLDY    82  52  34 W7G16     30.04F
LURAY*         PTCLDY    81  50  34 W10       30.06F
$$

VAZ048-049-060>072-079>083-251900-
CENTRAL AND SOUTH CENTRAL VIRGINIA

CITY           SKY/WX    TMP DP  RH WIND       PRES   REMARKS
RICHMOND       PTSUNNY   84  63  49 VRB6      30.03F
CHESTERFIELD*  FAIR      83  62  49 W9        30.04
PETERSBURG*    CLOUDY    83  58  42 CALM      30.05F
HANOVER        MOSUNNY   84  58  40 W9        30.05F
TAPPAHANNOCK*  MOSUNNY   84  50  30 NW3       30.04F
QUINTON*       FAIR      81  63  54 N7        30.02F
CHARLOTTSVILLE MOSUNNY   84  57  39 N5        30.05F
GORDONSVILLE*  PTCLDY    83  57  42 CALM      30.04F
ORANGE*        PTSUNNY   81  55  41 W10       30.04F
LOUISA*        MOSUNNY   88  59  37 SW7       30.03F
BUMPASS*       MOCLDY    80  61  51 CALM      30.04F
FARMVILLE*     PTSUNNY   82  52  35 SW5       30.06S
CREWE*         MOCLDY    81  54  39 NW7       30.06F
FORT PICKETT*  FAIR     N/A N/A N/A W12G17    30.06F
CHASE CITY*    FAIR      80  61  52 NW7       30.08F
CLARKSVILLE*   FAIR      81  63  54 NW7       30.07F
SOUTH HILL*    CLOUDY    83  62  49 CALM      30.12F
LAWRENCEVILLE* FAIR      83  60  46 NW5       30.05F
EMPORIA*       CLOUDY    81  61  50 W5        30.06S
$$

VAZ088>098-251900-
SOUTHEAST VIRGINIA

CITY           SKY/WX    TMP DP  RH WIND       PRES   REMARKS
NORFOLK        CLOUDY    85  66  53 NE13      30.01F
VIRGINIA BEACH CLOUDY    83  66  56 N13       30.01S
NORFOLK NAVAL  CLOUDY    87  62  43 NE13      30.03F
WEST POINT*    MOSUNNY   85  59  41 SW6       30.03F
SALUDA*        FAIR      82  63  53 W5        30.02F
NEWPORT NEWS   PTSUNNY   85  68  56 VRB7      30.01F
LANGLEY AFB    MOSUNNY   83  68  59 NE12      30.01F
FORT EUSTIS    CLOUDY    87  64  46 NW7       30.00F
WILLIAMSBURG*  PTSUNNY   90  66  45 CALM      30.03F
HR EXEC AP*    MOCLDY    84  73  70 NE5       29.98F
FRANKLIN*      MOSUNNY   84  66  54 N3        30.02F
US460-WAKEFLD  MOSUNNY   84  64  50 NW5       30.03F
$$

VAZ020-022-025-037-045-251900-
WEST CENTRAL AND SOUTHWEST VIRGINIA

CITY           SKY/WX    TMP DP  RH WIND       PRES   REMARKS
STAUNTON*      SUNNY     79  53  40 SW8       30.09F
WAYNESBORO*    PTCLDY    78  54  43 W7        30.10S
HOT SPRINGS VA MOSUNNY   66  36  32 NW9G16    30.21S
LYNCHBURG      MOSUNNY   79  55  43 W8        30.10F
DANVILLE       MOSUNNY   79  63  57 NW8       30.10F
SOUTH BOSTON*  FAIR      80  60  50 NW7       30.09S
MARTINSVILLE   PTSUNNY   79  57  46 CALM      30.15S
ROANOKE        MOSUNNY   79  51  37 W17       30.14F
BLACKSBURG     CLOUDY    74  51  44 NW13      30.20F
DUBLIN*        PTSUNNY   74  44  34 NW9       30.19S
MARION*        PTSUNNY   71  47  42 W9G16     30.23S
HILLSVILLE*    CLOUDY    69  45  42 NW5       30.20S
RICHLANDS*     FAIR      71  50  47 W12G18    30.24S
WISE*          PTSUNNY   70  46  43 NW6       30.25F
ABINGDON*      MOSUNNY   73  53  50 N7        30.22S
$$

MDZ021>025-VAZ099-100-251900-
SOUTHERN MARYLAND AND THE DELMARVA PENINSULA

CITY           SKY/WX    TMP DP  RH WIND       PRES   REMARKS
PATUXENT RIVER PTSUNNY   84  58  40 N9        30.01F
BAY BRIDGE APT PTSUNNY   82  59  44 W8        30.00F
LEONARDTOWN    PTSUNNY   81  59  47 W7        30.03F
DOVER          PTSUNNY   85  61  43 W14       29.97F
GEORGETOWN     PTSUNNY   86  60  41 VRB5      30.00F
EASTON         MOSUNNY   84  55  37 NW7       30.05S
CAMBRIDGE      SUNNY     84  54  34 NW9       30.01F
SALISBURY      PTSUNNY   84  63  49 N7        29.99F
OCEAN CITY     MOSUNNY   77  64  64 E8        30.00F
WALLOPS ISLAND MOSUNNY   86  63  45 N3        30.00F
ACCOMACK*      MOSUNNY   85  62  44 NW7       30.01F
$$

NCZ012>017-030>032-251900-
NORTH CENTRAL AND EASTERN NORTH CAROLINA

CITY           SKY/WX    TMP DP  RH WIND       PRES   REMARKS
ROANOKE RAPIDS FAIR      82  63  51 W6        30.05F
RALEIGH        CLOUDY    82  62  50 NE7       30.09F
ELIZABETH CITY MOSUNNY   87  74  64 W10       30.01F HX  95
AHOSKIE*         N/A     82  67  59 NW3       30.04F
EDENTON*       SUNNY     87  69  55 NW8       30.03F
CURRITUCK*     MOSUNNY   86  73  64 W7        30.01F
KILL DEVIL HLS SUNNY     81  71  71 W3        30.01S
MANTEO         SUNNY     81  73  77 N5        30.02S
CAPE HATTERAS  CLOUDY    82  76  81 SW7       30.02F
TARBORO*       NOT AVBL
GOLDSBORO      NOT AVBL
WASHINGTON     MOSUNNY  N/A N/A N/A NW6       30.03F
GREENVILLE     PTSUNNY   86  64  48 NW7       30.06F
NEW BERN       CLOUDY    84  74  71 NW8       30.04F
WILMINGTON     CLOUDY    86  74  67 W7        30.04F
$$

VAZ048-251900-
ELSEWHERE

CITY           SKY/WX    TMP DP  RH WIND       PRES   REMARKS
HARRISBURG PA  MOSUNNY   81  53  37 NW10      29.98F
BALTIMORE      MOSUNNY   84  56  38 NW15G21   29.99F
ANNAPOLIS      MOSUNNY   81  60  48 W12       29.99F
ANDREWS AFB    MOSUNNY   84  56  39 W8        30.01F
PHILADELPHIA   PTSUNNY   83  56  39 W13       29.97F
HENDERSON NC   CLOUDY    78  59  52 NW6       30.08F
GREENSBORO     PTSUNNY   78  63  59 VRB7      30.12F
ROCKY MOUNT    MOSUNNY   85  67  54 N12       30.05F
$$

VAZ100-251900-
MARINE

STATION/POSITION TIME  TEMP    WIND        PRES    WAVE   SWELL
                       AIR SEA DIR/SP/G            HT/PER HT/PER
                 (UTC) (F)     (DEG/KT/KT) (MB)    (FT/S) (FT/S)
BRANDYWINE LGT   1742   77     180/  2/  2 1016.4F
CAPE MAY NJ      1742   76 70  230/  6/  7 1015.9F
LEWES DE         1748   77 72   80/  8/  8 1015.9F
15NM E FENWICK I 1650   70 69  340/  6/  6 1016.8    2/ 7   2/ 7
OCEAN-CITY-INLET 1748   75 64  100/  9/ 11 1016.3F
WACHAPREAGUE VA  1748   85 83   CALM  /  2 1015.8F
THOMAS POINT MD  1800   81 78  290/  9/ 12   N/A
GOOSES REEF MD   1750   80     130/  4/  4 1017.1F
COVE POINT MD    1748   79      60/  4/  5 1016.8F
SOLOMONS ISLAND  1748          100/  3/  4   N/A
BISHOPS HEAD MD  1748   81 84  280/  8/ 10 1016.4F
PINEY POINT MD   1736          310/  7/  8   N/A
POTOMAC MD       1750   80      10/  6/  8 1015.6F
CAMBRIDGE MD     1748   86 84              1016.9F
LEWISETTA VA     1748   81 80  360/  5/  8 1016.4F
RAPPAHANNOCK LGT 1736          330/ 14/ 15 1017.1F
STINGRAY PT      1750   80      60/ 10/ 10 1016.9F
YORK RVR RNG VA  1748   81     360/  8/  9 1016.7F
YORKTOWN VA      1748   81 78  310/  9/ 10 1016.2F
JAMESTOWN VA     1750   82     290/  6/  6   N/A
DOMINION TERM VA 1748   80     150/  2/  3 1016.5F
KIPTOPEKE VA     1736      76  340/ 14/ 17   N/A
CHES BAY BRIDGE  1736   78 74   20/ 12/ 13 1016.3F
CAPE HENRY VA    1736   77     340/  8/  9   N/A
WILLOUBY STN VA  1736   79      40/ 11/ 12 1016.4F
S CRANEY ISL VA  1736   81     360/  7/  9 1016.2F
CAPE HENRY BUOY  1730      74                N/A     2/ 6
1ST LANDING BUOY 1750   79                 1016.3F
CAPE CHARLES BUO 1751      72                N/A     2/ 9
64NM E OF VA BCH 1750   74 74  270/  4/  6 1016.6F   3/ 7   3/ 7
DUCK PIER NC     1736   80 60  230/  4/  5 1015.9F
44100 DUCK FRF   1705      74                N/A     2/ 6
OREGON INLET NC  1736   78 78   60/  5/  6 1016.5R
HATTERAS NC      1736   81 78  270/  6/  8 1016.6F
DIAMOND SHLS NC  1750   79 80  260/  8/  8 1016.6F   3/ 6   3/ 6
CAPE LOOKOUT NC  1700   80     250/  8/ 12 1016.8F
$$




USA.gov is the U.S. government's official web portal to all federal, state and local government web resources and services.